Location: Vale
(35.4830°N, 81.3830°W)
Time: 10:11:25
(UTC-04:00)

Amateur Radio Satellites - All Passes

Search period start: 27 May 2016 09:41
Search period end: 28 May 2016 09:41
Location: Vale, 35.4830°N, 81.3830°W

Satellite Date Start Highest point End Downlink Frequencies (MHz)
Time Altitude Azimuth
PCSat 27 May 09:47:37 09:52:28 35° 109° (ESE) 09:57:22 145.827
UWE-3 27 May 09:49:30 09:52:57 25° 96° (E) 09:56:27 435.000/436.395/437.385
SO-50 27 May 09:53:38 09:57:56 35° 54° (NE) 10:02:05 436.795
FUNcube-1 27 May 09:55:35 09:58:26 18° 95° (E) 10:01:20 145.935
CINEMA 3 27 May 10:03:21 10:07:13 38° 287° (WNW) 10:11:04 145.822/145.860
DELFI C3 27 May 10:04:48 10:06:04 11° 92° (E) 10:07:20 145.870
O/OREOS (USA 219) 27 May 10:08:57 10:13:29 70° 108° (ESE) 10:18:02 437.305
ANTELSAT 27 May 10:09:58 10:13:07 20° 69° (ENE) 10:16:14 437.575/2403.000
CANX-2 27 May 10:10:11 10:13:55 30° 288° (WNW) 10:17:40 2200.000
SEEDS 27 May 10:13:37 10:17:40 43° 286° (WNW) 10:21:41 437.485
PRISM 27 May 10:14:55 10:17:04 14° 267° (W) 10:19:14 437.425
JUGNU 27 May 10:18:33 10:21:53 15° 188° (S) 10:25:13 437.505
SRMSAT 27 May 10:22:24 10:26:02 17° 176° (S) 10:29:40 437.500
CUTE 1.7 + AOD 2 27 May 10:38:19 10:41:07 17° 292° (WNW) 10:43:56 437.475
Oscar 11 27 May 10:38:58 10:43:19 75° 102° (ESE) 10:47:39 145.826/435.025
AUBIESAT-1 27 May 10:42:13 10:43:24 12° 297° (WNW) 10:44:35 437.475
ZACube-1 27 May 10:52:14 10:56:27 86° 281° (W) 11:00:43 437.345
CUBEBUG 2 27 May 10:56:06 10:59:49 32° 287° (WNW) 11:03:35 437.445
POPSAT HIP 1 27 May 10:57:13 10:58:13 11° 65° (ENE) 10:59:13 437.405
QB50P1 27 May 10:57:27 10:58:39 11° 65° (ENE) 10:59:51 145.935-145.965
QB50P2 27 May 10:58:59 11:00:45 12° 66° (ENE) 11:02:31 145.880/145.840
POLYITAN 1 27 May 11:01:20 11:03:12 13° 66° (ENE) 11:05:03 437.675
COMPASS 1 27 May 11:01:37 11:04:27 18° 291° (WNW) 11:07:18 437.405
GONETS M04 27 May 11:03:28 11:11:30 43° 272° (W) 11:19:30
UNISAT 6 27 May 11:03:52 11:08:17 86° 74° (ENE) 11:12:37 437.425
AAUSAT CUBESAT 2 27 May 11:04:23 11:07:29 20° 291° (WNW) 11:10:34 437.432
HUMSAT D 27 May 11:04:51 11:08:26 27° 97° (E) 11:12:03 437.325/437.525
TIGRISAT 27 May 11:11:36 11:15:59 82° 256° (WSW) 11:20:19 435.000
NANOSAT C BR1 27 May 11:14:26 11:17:12 17° 68° (ENE) 11:19:56 145.865
Cosmos 2499 27 May 11:15:42 11:24:09 58° 269° (W) 11:32:46 435.465 / 435.565
HO-68 27 May 11:19:08 11:24:07 21° 300° (WNW) 11:29:06 435.675
UWE-3 27 May 11:26:03 11:29:18 22° 290° (WNW) 11:32:34 435.000/436.395/437.385
BEESAT 2 27 May 11:29:42 11:31:46 14° 109° (ESE) 11:33:52 435.950
FUNcube-1 27 May 11:31:00 11:34:42 31° 288° (WNW) 11:38:27 145.935
PCSat 27 May 11:31:13 11:35:52 29° 305° (NW) 11:40:33 145.827
SO-50 27 May 11:34:40 11:38:09 21° 250° (WSW) 11:41:33 436.795
DELFI C3 27 May 11:37:17 11:41:08 44° 286° (WNW) 11:44:57 145.870
ANTELSAT 27 May 11:45:45 11:49:38 30° 263° (W) 11:53:27 437.575/2403.000
DUCHIFAT 1 27 May 11:51:46 11:55:47 43° 74° (ENE) 11:59:47 145.980
O/OREOS (USA 219) 27 May 11:52:14 11:53:22 11° 304° (NW) 11:54:29 437.305
BEESAT 3 27 May 12:03:11 12:07:04 69° 116° (ESE) 12:10:59 437.485
SRMSAT 27 May 12:10:58 12:14:27 16° 186° (S) 12:17:56 437.500
BUGSAT 1 27 May 12:11:48 12:15:35 34° 72° (ENE) 12:19:22 437.445
ESTCUBE 1 27 May 12:14:14 12:18:16 30° 97° (E) 12:22:15 437.505/2401.250
DANDE 27 May 12:17:41 12:21:50 24° 83° (E) 12:26:56 436.750
50 SAT 27 May 12:21:58 12:25:06 25° 97° (E) 12:28:13 437.505
CUSAT 1 27 May 12:25:03 12:30:58 70° 94° (E) 12:38:25 437.405
POPSAT HIP 1 27 May 12:29:18 12:33:29 57° 259° (W) 12:37:39 437.405
QB50P1 27 May 12:29:45 12:33:55 55° 260° (W) 12:38:05 145.935-145.965
QB50P2 27 May 12:32:00 12:36:06 48° 260° (W) 12:40:13 145.880/145.840
CUBEBUG 1 27 May 12:32:00 12:35:56 32° 97° (E) 12:39:48 437.445
DX 1 27 May 12:34:03 12:37:45 26° 97° (E) 12:41:24 434.975-435.025
POLYITAN 1 27 May 12:34:29 12:38:34 47° 260° (W) 12:42:40 437.675
JAS-2 27 May 12:35:21 12:41:44 34° 65° (ENE) 12:48:29 435.910
VELOX 1 27 May 12:37:51 12:41:56 36° 98° (E) 12:45:59 145.980
HUMSAT D 27 May 12:40:49 12:43:52 20° 290° (WNW) 12:46:56 437.325/437.525
NANOSAT C BR1 27 May 12:48:47 12:52:38 34° 262° (W) 12:56:29 145.865
SPROUT 27 May 13:00:53 13:04:25 25° 96° (E) 13:07:54 437.525
BEESAT 2 27 May 13:05:31 13:09:15 39° 304° (WNW) 13:13:00 435.950
AISAT 27 May 13:13:39 13:18:05 79° 284° (WNW) 13:22:27 437.250
UKube-1 27 May 13:23:27 13:27:47 85° 104° (ESE) 13:32:05 .
TISAT 1 27 May 13:27:51 13:29:33 12° 93° (E) 13:31:15 437.305
DUCHIFAT 1 27 May 13:29:48 13:31:39 13° 267° (W) 13:33:30 145.980
AIST 2 27 May 13:35:14 13:38:19 21° 111° (ESE) 13:41:25 435.215
BEESAT 3 27 May 13:44:29 13:45:12 10° 314° (NW) 13:45:56 437.485
BUGSAT 1 27 May 13:48:20 13:51:01 16° 266° (W) 13:53:41 437.445
ESTCUBE 1 27 May 13:51:24 13:54:51 22° 292° (WNW) 13:58:18 437.505/2401.250
50 SAT 27 May 13:56:09 13:58:37 17° 291° (WNW) 14:01:06 437.505
Oscar 19 27 May 13:56:45 14:01:54 69° 75° (ENE) 14:07:05 437.125/150
DANDE 27 May 13:59:13 14:04:09 40° 288° (WNW) 14:10:32 436.750
CUBEBUG 1 27 May 14:08:53 14:11:58 19° 292° (WNW) 14:15:01 437.445
CUSAT 1 27 May 14:09:33 14:14:01 19° 296° (WNW) 14:19:03 437.405
DX 1 27 May 14:10:23 14:13:46 23° 291° (WNW) 14:17:09 434.975-435.025
VELOX 1 27 May 14:15:10 14:18:05 18° 293° (WNW) 14:21:00 145.980
Gurwin Techsat 1B 27 May 14:17:20 14:22:19 43° 71° (ENE) 14:27:20 435.225
JAS-2 27 May 14:19:33 14:26:22 46° 263° (W) 14:33:47 435.910
Cosmos 2491 27 May 14:23:28 14:27:52 14° 64° (ENE) 14:32:14 435.465 / 435.565
BEESAT 27 May 14:30:26 14:32:11 12° 92° (E) 14:33:55 436.000
SPROUT 27 May 14:36:53 14:40:13 23° 290° (WNW) 14:43:32 437.525
ITAMSAT 1 27 May 14:38:44 14:42:59 26° 68° (ENE) 14:47:14 435.822/435.867
AO-7 27 May 14:44:08 14:50:04 22° 57° (ENE) 14:56:01 29.400- 29.500
TISAT 1 27 May 15:01:26 15:05:24 43° 287° (WNW) 15:09:20 437.305
AIST 2 27 May 15:12:58 15:16:35 29° 305° (NW) 15:20:15 435.215
AO-85 27 May 15:20:08 15:24:07 28° 52° (NE) 15:27:48 145.980
SWISSCUBE 27 May 15:35:45 15:40:33 73° 103° (ESE) 15:45:20 437.505
Oscar 19 27 May 15:39:51 15:41:38 12° 269° (W) 15:43:26 437.125/150
ITUPSAT 1 27 May 15:41:46 15:46:35 74° 103° (ESE) 15:51:23 437.325
Gurwin Techsat 1B 27 May 15:58:37 16:02:24 20° 266° (W) 16:06:13 435.225
BEESAT 27 May 16:05:35 16:10:17 59° 286° (WNW) 16:14:59 436.000
YUBILEINY 27 May 16:14:02 16:21:49 39° 87° (E) 16:29:37 435.215
Cosmos 2491 27 May 16:17:13 16:26:01 84° 84° (E) 16:34:44 435.465 / 435.565
ITAMSAT 1 27 May 16:17:43 16:22:17 32° 263° (W) 16:26:54 435.822/435.867
AO-7 27 May 16:33:41 16:41:57 77° 254° (WSW) 16:50:18 29.400- 29.500
AO-85 27 May 17:00:48 17:04:25 24° 250° (WSW) 17:07:48 145.980
KKS-1 27 May 17:04:03 17:08:28 69° 103° (ESE) 17:12:51 437.445
SWISSCUBE 27 May 17:16:34 17:17:41 11° 297° (WNW) 17:18:48 437.505
MOZHAYETS 4 27 May 17:18:06 17:22:44 75° 102° (ESE) 17:27:22
ITUPSAT 1 27 May 17:22:45 17:23:45 11° 297° (WNW) 17:24:45 437.325
Cosmos 2504 27 May 17:23:29 17:29:06 25° 84° (E) 17:34:53 435.465 / 435.565
HORYU 2 27 May 17:25:30 17:29:55 82° 75° (ENE) 17:34:21 437.375
BRITE-PL 27 May 17:39:40 17:43:14 17° 65° (ENE) 17:46:50 437.365/2234.400
RS-15 27 May 17:40:10 17:51:08 63° 112° (ESE) 18:02:42 29.354- 29.394
STARS 27 May 17:40:11 17:44:34 89° 107° (ESE) 17:48:55 437.465
CUTE-I 27 May 17:52:35 17:56:16 19° 65° (ENE) 17:59:57 437.470
GOMX 1 27 May 18:05:54 18:08:41 14° 65° (ENE) 18:11:26 467.674
YUBILEINY 27 May 18:10:28 18:18:27 40° 284° (WNW) 18:26:31 435.215
Cosmos 2491 27 May 18:16:45 18:21:36 16° 281° (W) 18:26:29 435.465 / 435.565
AO-7 27 May 18:33:28 18:35:49 11° 270° (W) 18:38:11 29.400- 29.500
LilacSat-2 27 May 18:37:20 18:40:54 40° 74° (ENE) 18:44:28 437.200
PCSat 27 May 18:39:09 18:42:37 17° 49° (NE) 18:46:04 145.827
NOAA 15 27 May 18:39:45 18:45:03 83° 75° (ENE) 18:50:23 137.62
NOAA 18 27 May 18:41:47 18:47:13 74° 74° (ENE) 18:52:41 137.9125
CUBESAT XI-V 27 May 18:43:05 18:47:47 66° 101° (E) 18:52:26 437.345
Cubesat XI-IV 27 May 18:44:20 18:49:33 61° 74° (ENE) 18:54:48 437.490
DOVE 4 27 May 18:54:13 18:57:53 20° 68° (ENE) 19:01:27 437.250
Cosmos 2504 27 May 19:15:02 19:21:55 48° 282° (WNW) 19:29:10 435.465 / 435.565
BRITE-PL 27 May 19:15:35 19:21:06 62° 260° (W) 19:26:46 437.365/2234.400
CINEMA 3 27 May 19:27:49 19:29:07 11° 65° (ENE) 19:30:22 145.822/145.860
CUTE-I 27 May 19:30:49 19:35:55 47° 260° (W) 19:41:02 437.470
GOMX 1 27 May 19:40:39 19:46:07 71° 259° (W) 19:51:33 467.674
AUBIESAT-1 27 May 19:49:19 19:52:52 28° 68° (ENE) 19:56:14 437.475
CUTE 1.7 + AOD 2 27 May 19:52:23 19:55:07 17° 68° (ENE) 19:57:51 437.475
RS-15 27 May 19:53:48 20:04:11 39° 315° (NW) 20:15:09 29.354- 29.394
HO-68 27 May 19:55:27 20:01:54 38° 66° (ENE) 20:08:21 435.675
M-CUBED/EXP-1 PRIME 27 May 19:55:29 19:59:30 42° 70° (ENE) 20:03:16 437.505
STRAND 1 27 May 20:00:25 20:04:56 30° 97° (E) 20:09:26 437.568
LilacSat-2 27 May 20:14:23 20:15:21 11° 268° (W) 20:16:20 437.200
COMPASS 1 27 May 20:14:25 20:16:49 15° 68° (ENE) 20:19:14 437.405
AAUSAT CUBESAT 2 27 May 20:17:32 20:19:25 13° 67° (ENE) 20:21:18 437.432
CUBEBUG 2 27 May 20:17:51 20:18:44 11° 66° (ENE) 20:19:36 437.445
PCSat 27 May 20:21:06 20:26:29 67° 247° (WSW) 20:31:50 145.827
O/OREOS (USA 219) 27 May 20:22:00 20:26:30 79° 72° (ENE) 20:30:57 437.305
CUBESAT XI-V 27 May 20:23:06 20:24:33 11° 296° (WNW) 20:26:00 437.345
BEESAT 3 27 May 20:24:11 20:26:46 17° 50° (NE) 20:29:20 437.485
NOAA 18 27 May 20:26:31 20:28:21 12° 268° (W) 20:30:11 137.9125
Cubesat XI-IV 27 May 20:27:19 20:29:59 14° 268° (W) 20:32:39 437.490
DOVE 4 27 May 20:30:11 20:35:13 45° 261° (W) 20:40:06 437.250
ISS 27 May 20:37:17 20:38:49 13° 127° (SE) 20:40:22 145.825
UWE-3 27 May 20:44:46 20:47:11 15° 68° (ENE) 20:49:34 435.000/436.395/437.385
CANX-2 27 May 20:59:11 21:03:20 63° 260° (W) 21:07:32 2200.000
CINEMA 3 27 May 21:00:56 21:05:43 67° 259° (W) 21:10:19 145.822/145.860
SEEDS 27 May 21:01:48 21:05:57 84° 76° (ENE) 21:10:09 437.485
AUBIESAT-1 27 May 21:24:15 21:27:17 19° 258° (WSW) 21:30:13 437.475
BEESAT 2 27 May 21:26:08 21:29:57 42° 57° (ENE) 21:33:43 435.950
CUTE 1.7 + AOD 2 27 May 21:26:53 21:30:40 33° 263° (W) 21:34:29 437.475
Oscar 11 27 May 21:30:44 21:34:40 37° 73° (ENE) 21:38:39 145.826/435.025
M-CUBED/EXP-1 PRIME 27 May 21:31:57 21:34:06 14° 260° (W) 21:36:11 437.505
STRAND 1 27 May 21:39:40 21:43:58 27° 292° (WNW) 21:48:16 437.568
HO-68 27 May 21:43:05 21:49:31 36° 262° (W) 21:56:01 435.675
ZACube-1 27 May 21:44:57 21:49:03 48° 74° (ENE) 21:53:06 437.345
COMPASS 1 27 May 21:48:13 21:52:02 36° 262° (W) 21:55:54 437.405
CUBEBUG 2 27 May 21:50:30 21:54:52 60° 260° (W) 21:59:07 437.445
AAUSAT CUBESAT 2 27 May 21:50:33 21:54:28 43° 261° (W) 21:58:27 437.432
AIST 1 27 May 21:53:32 21:57:54 76° 95° (E) 22:02:19
HUMSAT D 27 May 21:54:50 21:56:47 13° 67° (ENE) 21:58:45 437.325/437.525
PHONESAT 2.4 27 May 21:56:47 21:59:35 30° 149° (SSE) 22:02:24 2401.200-2431.200
PRISM 27 May 21:57:08 22:01:20 82° 282° (WNW) 22:05:28 437.425
Cosmos 2499 27 May 21:58:41 22:03:35 20° 81° (E) 22:08:39 435.465 / 435.565
BEESAT 3 27 May 22:00:55 22:04:35 37° 246° (WSW) 22:08:14 437.485
GONETS M04 27 May 22:03:43 22:11:57 46° 88° (E) 22:20:08
ISS 27 May 22:11:46 22:14:56 47° 321° (NW) 22:18:07 145.825
RS-15 27 May 22:15:27 22:21:43 15° 348° (NNW) 22:28:07 29.354- 29.394
UWE-3 27 May 22:19:14 22:23:19 40° 261° (W) 22:27:19 435.000/436.395/437.385
DELFI C3 27 May 22:19:46 22:23:40 65° 76° (ENE) 22:27:38 145.870
FUNcube-1 27 May 22:22:55 22:27:06 60° 259° (W) 22:31:14 145.935
DANDE 27 May 22:58:53 23:05:29 25° 67° (ENE) 23:11:33 436.750
UNISAT 6 27 May 22:59:08 23:02:27 21° 96° (E) 23:05:48 437.425
CUSAT 1 27 May 23:04:07 23:11:25 46° 74° (ENE) 23:17:24 437.405
BEESAT 2 27 May 23:05:31 23:07:23 13° 252° (WSW) 23:09:14 435.950
TIGRISAT 27 May 23:06:28 23:09:59 24° 96° (E) 23:13:32 435.000
Oscar 11 27 May 23:08:24 23:10:55 15° 267° (W) 23:13:27 145.826/435.025
ESTCUBE 1 27 May 23:11:23 23:14:41 20° 68° (ENE) 23:18:00 437.505/2401.250
ZACube-1 27 May 23:24:16 23:25:33 11° 268° (W) 23:26:50 437.345
CUBEBUG 1 27 May 23:25:34 23:28:44 20° 68° (ENE) 23:31:56 437.445
DX 1 27 May 23:27:27 23:30:15 17° 67° (ENE) 23:33:05 434.975-435.025
HUMSAT D 27 May 23:28:11 23:32:02 40° 261° (W) 23:35:54 437.325/437.525
VELOX 1 27 May 23:32:34 23:36:05 23° 69° (ENE) 23:39:36 145.980
PHONESAT 2.4 27 May 23:33:10 23:36:15 52° 344° (NNW) 23:39:19 2401.200-2431.200
AIST 2 27 May 23:36:25 23:40:34 68° 60° (ENE) 23:44:40 435.215
ANTELSAT 27 May 23:39:33 23:43:50 65° 101° (E) 23:48:12 437.575/2403.000
Cosmos 2499 27 May 23:48:44 23:55:49 62° 280° (W) 00:03:25 435.465 / 435.565
SPROUT 27 May 23:52:48 23:55:03 14° 67° (ENE) 23:57:18 437.525
GONETS M04 28 May 00:01:04 00:08:50 34° 286° (WNW) 00:16:38
SO-50 28 May 00:05:08 00:09:02 24° 110° (ESE) 00:12:54 436.795
AISAT 28 May 00:07:38 00:12:03 62° 75° (ENE) 00:16:29 437.250
UKube-1 28 May 00:14:48 00:18:57 46° 73° (ENE) 00:23:06 .
POPSAT HIP 1 28 May 00:17:27 00:21:02 27° 97° (E) 00:24:36 437.405
QB50P1 28 May 00:17:48 00:21:25 28° 97° (E) 00:25:02 145.935-145.965
QB50P2 28 May 00:20:03 00:23:49 31° 98° (E) 00:27:35 145.880/145.840
POLYITAN 1 28 May 00:22:30 00:26:17 32° 98° (E) 00:30:03 437.675
50 SAT 28 May 00:30:09 00:33:43 57° 259° (W) 00:37:19 437.505
RS-15 28 May 00:33:11 00:41:27 20° 26° (NNE) 00:49:45 29.354- 29.394
UNISAT 6 28 May 00:35:29 00:39:07 27° 289° (WNW) 00:42:48 437.425
NANOSAT C BR1 28 May 00:35:49 00:39:50 44° 100° (E) 00:43:49 145.865
DANDE 28 May 00:40:41 00:49:01 67° 267° (W) 00:56:18 436.750
TIGRISAT 28 May 00:43:06 00:46:34 24° 290° (WNW) 00:50:04 435.000
CUSAT 1 28 May 00:46:54 00:53:02 28° 275° (W) 00:58:17 437.405
ESTCUBE 1 28 May 00:47:13 00:51:15 32° 263° (W) 00:55:19 437.505/2401.250
CUBEBUG 1 28 May 01:00:47 01:04:46 32° 263° (W) 01:08:46 437.445
DX 1 28 May 01:02:04 01:06:07 37° 261° (W) 01:10:13 434.975-435.025
VELOX 1 28 May 01:08:35 01:12:23 27° 263° (W) 01:16:13 145.980
PHONESAT 2.4 28 May 01:10:30 01:13:20 30° 0° (N) 01:16:10 2401.200-2431.200
DUCHIFAT 1 28 May 01:14:13 01:18:21 64° 284° (WNW) 01:22:28 145.980
SPROUT 28 May 01:26:31 01:30:36 43° 261° (W) 01:34:43 437.525
BUGSAT 1 28 May 01:31:25 01:35:28 90° 124° (SE) 01:39:28 437.445
JAS-2 28 May 01:33:32 01:40:06 36° 94° (E) 01:46:00 435.910
BEESAT 28 May 01:35:27 01:36:18 10° 63° (ENE) 01:37:08 436.000
SO-50 28 May 01:44:47 01:49:18 36° 306° (NW) 01:53:50 436.795
TISAT 1 28 May 01:49:28 01:53:42 88° 81° (E) 01:57:57 437.305
UKube-1 28 May 01:53:19 01:55:12 13° 267° (W) 01:57:05 .
POPSAT HIP 1 28 May 01:53:32 01:56:38 20° 291° (WNW) 01:59:44 437.405
QB50P1 28 May 01:53:57 01:57:00 20° 291° (WNW) 02:00:04 145.935-145.965
QB50P2 28 May 01:56:32 01:59:23 18° 292° (WNW) 02:02:13 145.880/145.840
POLYITAN 1 28 May 01:59:02 02:01:49 17° 292° (WNW) 02:04:36 437.675
Oscar 19 28 May 02:11:51 02:16:22 30° 97° (E) 02:20:51 437.125/150
NANOSAT C BR1 28 May 02:13:12 02:15:08 13° 294° (WNW) 02:17:05 145.865
DANDE 28 May 02:28:51 02:30:06 10° 284° (WNW) 02:31:21 436.750
YUBILEINY 28 May 02:29:21 02:34:06 15° 65° (ENE) 02:38:49 435.215
Gurwin Techsat 1B 28 May 02:37:11 02:41:16 22° 95° (E) 02:45:19 435.225
SWISSCUBE 28 May 02:39:04 02:43:43 59° 74° (ENE) 02:48:24 437.505
RS-15 28 May 02:45:19 02:57:27 58° 54° (NE) 03:09:28 29.354- 29.394
ITUPSAT 1 28 May 02:45:23 02:50:03 60° 74° (ENE) 02:54:45 437.325
PHONESAT 2.4 28 May 02:47:19 02:50:24 55° 17° (NNE) 02:53:29 2401.200-2431.200
ITAMSAT 1 28 May 02:56:37 02:58:07 11° 91° (E) 02:59:38 435.822/435.867
BEESAT 28 May 03:08:40 03:13:24 74° 258° (WSW) 03:18:11 436.000
JAS-2 28 May 03:18:24 03:25:03 38° 293° (WNW) 03:31:04 435.910
Cosmos 2491 28 May 03:21:25 03:27:00 19° 80° (E) 03:32:35 435.465 / 435.565
Oscar 19 28 May 03:51:15 03:55:33 27° 292° (WNW) 03:59:49 437.125/150
KKS-1 28 May 03:58:58 04:03:12 43° 73° (ENE) 04:07:25 437.445
Gurwin Techsat 1B 28 May 04:16:22 04:21:17 39° 289° (WNW) 04:26:12 435.225
MOZHAYETS 4 28 May 04:16:51 04:21:13 48° 74° (ENE) 04:25:37
SWISSCUBE 28 May 04:20:09 04:21:50 12° 268° (W) 04:23:34 437.505
YUBILEINY 28 May 04:23:18 04:32:06 87° 83° (E) 04:40:55 435.215
PHONESAT 2.4 28 May 04:24:19 04:27:02 27° 212° (SSW) 04:29:43 2401.200-2431.200
ITUPSAT 1 28 May 04:26:40 04:28:14 11° 268° (W) 04:29:47 437.325
ITAMSAT 1 28 May 04:32:49 04:38:02 72° 285° (WNW) 04:43:14 435.822/435.867
STARS 28 May 04:33:34 04:37:51 52° 74° (ENE) 04:42:08 437.465
AO-7 28 May 04:38:52 04:46:48 45° 101° (E) 04:54:42 29.400- 29.500
ISS 28 May 04:41:50 04:44:59 45° 39° (NE) 04:48:07 145.825
RS-15 28 May 04:58:28 05:09:29 41° 254° (WSW) 05:20:22 29.354- 29.394
Cosmos 2504 28 May 05:09:21 05:17:37 52° 79° (E) 05:26:11 435.465 / 435.565
Cosmos 2491 28 May 05:13:55 05:22:45 78° 277° (W) 05:31:37 435.465 / 435.565
HORYU 2 28 May 05:20:18 05:23:30 19° 95° (E) 05:26:42 437.375
AO-85 28 May 05:30:56 05:35:07 23° 109° (ESE) 05:39:18 145.980
KKS-1 28 May 05:37:26 05:39:55 15° 267° (W) 05:42:24 437.445
CUBESAT XI-V 28 May 05:43:13 05:47:37 44° 73° (ENE) 05:52:06 437.345
MOZHAYETS 4 28 May 05:56:27 05:58:37 13° 268° (W) 06:00:48
STARS 28 May 06:12:59 06:14:28 11° 268° (W) 06:15:57 437.465
ISS 28 May 06:19:24 06:21:07 14° 233° (SW) 06:22:48 145.825
YUBILEINY 28 May 06:22:59 06:27:38 16° 281° (WNW) 06:32:19 435.215
JUGNU 28 May 06:27:31 06:30:13 13° 169° (SSE) 06:32:56 437.505
AO-7 28 May 06:31:53 06:39:20 38° 297° (WNW) 06:46:49 29.400- 29.500
HORYU 2 28 May 06:56:09 07:00:05 32° 289° (WNW) 07:04:00 437.375
NOAA 15 28 May 06:58:15 07:03:13 40° 99° (E) 07:08:08 137.62
Cosmos 2504 28 May 07:03:25 07:10:35 31° 275° (W) 07:17:58 435.465 / 435.565
Cubesat XI-IV 28 May 07:04:58 07:09:41 31° 97° (E) 07:14:25 437.490
NOAA 18 28 May 07:07:05 07:12:13 40° 99° (E) 07:17:20 137.9125
AO-85 28 May 07:10:07 07:15:20 46° 304° (NW) 07:20:30 145.980
STRAND 1 28 May 07:13:26 07:17:54 32° 70° (ENE) 07:22:24 437.568
Cosmos 2491 28 May 07:17:21 07:21:04 13° 297° (WNW) 07:24:47 435.465 / 435.565
CUBESAT XI-V 28 May 07:22:29 07:25:12 15° 267° (W) 07:27:55 437.345
BRITE-PL 28 May 07:24:27 07:29:25 59° 99° (E) 07:33:57 437.365/2234.400
GOMX 1 28 May 07:46:39 07:51:02 42° 98° (E) 07:55:07 467.674
LilacSat-2 28 May 07:47:30 07:51:18 83° 282° (WNW) 07:55:05 437.200
CUTE-I 28 May 07:50:36 07:55:59 88° 100° (E) 08:01:21 437.470
AIST 1 28 May 08:05:24 08:07:38 14° 73° (ENE) 08:09:51
JUGNU 28 May 08:14:41 08:18:29 17° 179° (S) 08:22:18 437.505
GONETS M04 28 May 08:19:02 08:24:41 18° 67° (ENE) 08:30:18
SRMSAT 28 May 08:22:29 08:24:40 12° 167° (SSE) 08:26:51 437.500
DOVE 4 28 May 08:32:35 08:36:53 63° 100° (E) 08:41:00 437.250
NOAA 15 28 May 08:38:40 08:42:42 23° 294° (WNW) 08:46:43 137.62
SO-50 28 May 08:40:52 08:42:20 11° 43° (NE) 08:43:49 436.795
PRISM 28 May 08:43:23 08:47:20 45° 73° (ENE) 08:51:19 437.425
Cubesat XI-IV 28 May 08:45:06 08:49:37 29° 292° (WNW) 08:54:10 437.490
CANX-2 28 May 08:47:31 08:51:10 27° 96° (E) 08:54:49 2200.000
NOAA 18 28 May 08:48:18 08:52:35 24° 294° (WNW) 08:56:53 137.9125
SEEDS 28 May 08:49:42 08:52:33 17° 94° (E) 08:55:25 437.485
STRAND 1 28 May 08:52:54 08:57:02 25° 264° (W) 09:01:14 437.568
O/OREOS (USA 219) 28 May 08:54:29 08:56:38 13° 99° (E) 08:58:46 437.305
CINEMA 3 28 May 08:59:05 09:02:50 32° 98° (E) 09:06:34 145.822/145.860
BRITE-PL 28 May 09:04:52 09:07:13 13° 297° (WNW) 09:09:29 437.365/2234.400
AUBIESAT-1 28 May 09:05:08 09:07:59 26° 103° (ESE) 09:10:51 437.475
M-CUBED/EXP-1 PRIME 28 May 09:12:08 09:15:15 43° 104° (ESE) 09:18:24 437.505
HO-68 28 May 09:13:10 09:20:10 53° 101° (E) 09:27:07 435.675
CUTE 1.7 + AOD 2 28 May 09:14:15 09:18:25 49° 99° (E) 09:22:34 437.475
PCSat 28 May 09:17:29 09:21:47 25° 107° (ESE) 09:26:07 145.827
GOMX 1 28 May 09:26:03 09:28:39 15° 295° (WNW) 09:31:10 467.674
CUTE-I 28 May 09:34:14 09:35:13 10° 299° (WNW) 09:36:13 437.470
ZACube-1 28 May 09:38:18 09:39:39 11° 92° (E) 09:41:00 437.345
